Weather in Pribrejnoye

Russia / Republic of Crimea     45°08′42″N   33°31′13″E
temp.,
°C
wind,
m/s
gust,
m/s
humid.,
%
clouds,
%
prec.,
mm/h
press.,
hPa
HPBL,
m
3 march, wed
wed300:00+4wsw711815 0.0 1024477
03:00+6w7118043 0.0 1024648
06:00+3n6107778 0.0 1023770
09:00+4nnw796888 0.0 10261012
12:00+7n68540 0.0 10271050
15:00+8nnw67500 0.0 10271254
18:00+7nw46530 0.0 1027759
21:00+4wnw35720 0.0 1029148
4 march, thu
thu400:00+4wnw237439 0.0 102874
03:00+2wsw128143 0.0 102899
06:00+2sw23800 0.0 1026212
09:00+6sw46640 0.0 1025780
12:00+8sw78590 0.0 1024894
15:00+8sw89640 0.0 1022798
18:00+7sw810730 0.0 1020735
21:00+6ssw812760 0.0 1019621
5 march, fri
fri500:00+6ssw913770 0.0 1018595
03:00+6ssw913820 0.0 1017579
06:00+6ssw913818 0.0 1016527
09:00+7ssw10137612 0.0 1015607
12:00+9ssw1114690 0.0 1014661
15:00+10ssw1114716 0.0 1012619
18:00+9ssw10138217 0.0 1011575
21:00+8ssw8129114 0.0 1012417
6 march, sat
sat600:00+8ssw610936 0.0 1013281
03:00+7ssw579311 0.0 1014133
06:00+5n7109046 0.0 1015266
09:00+5nne698373 0.0 1017480
12:00+3nne6894100 0.3 1018437
15:00+6nne6757100 0.4 1019951
18:00+4n6845100 0.1 10211343
21:00+3n4849100 0.1 1024599
7 march, sun
sun700:00+1nnw465033 0.0 1026372
03:000n486817 0.0 1027301
06:00−2n12550 0.0 1027139
09:00+2s23400 0.0 1028220
12:00+5w674053 0.0 10271864
15:00+5w784173 0.0 10251810
18:00+4w674725 0.0 10231366
21:00+3wsw475513 0.0 1022394